Regional Weather Roundup
Issued by NWS

Home | Current Version | Previous Version | Text Only | Print | Product List | Glossary On
Versions: 1 2 3 4 5 6 7 8 9 10 11 12 13 14 15 16 17 18 19 20 21 22 23 24 25 26 27 28 29 30 31 32 33 34 35 36 37 38 39 40 41 42 43 44 45 46 47 48 49 50
000
ASUS44 KBMX 051610
RWRAL

ALABAMA REGIONAL WEATHER ROUNDUP
NATIONAL WEATHER SERVICE BIRMINGHAM AL
1000 AM CST THU MAR 05 2015

NOTE: "FAIR" INDICATES FEW OR NO CLOUDS BELOW 12,000 FEET
WITH NO SIGNIFICANT WEATHER AND/OR OBSTRUCTIONS TO VISIBILITY.

THE REMARK "TC" DENOTES TEMPERATURE IN DEGREES CELSIUS.

ALZ001>011-014-016>018-020-051700-
NORTH ALABAMA

CITY           SKY/WX    TMP DP  RH WIND       PRES   REMARKS
MUSCLE SHOALS  CLOUDY    26  20  77 N10G20    30.33R WCI  16
HUNTSVILLE     CLOUDY    28  22  78 N17G25    30.23F WCI  16
DECATUR        CLOUDY    26  22  84 N14G26    30.25F WCI  14
HALEYVILLE       N/A     23  22  96 N12       30.27R WCI  12
GADSDEN        CLOUDY    37  34  87 N6        30.14F WCI  33
$$

ALZ012-013-022-023-030>036-040>044-051700-
WEST CENTRAL ALABAMA

CITY           SKY/WX    TMP DP  RH WIND       PRES   REMARKS
TUSCALOOSA     LGT RAIN  37  33  85 N13       30.22S WCI  29
$$

ALZ015-024>027-033>036-040>044-051700-
CENTRAL ALABAMA

CITY           SKY/WX    TMP DP  RH WIND       PRES   REMARKS
BIRMINGHAM     CLOUDY    36  33  89 N13       30.17F WCI  27
MONTGOMERY     CLOUDY    43  38  82 NW13G20   30.18R
SHELBY CO ARPT LGT RAIN  37  35  92 CALM      30.15F FOG
MAXWELL AFB    MIX PCPN  41  39  93 NW9       30.17R
GREENVILLE     CLOUDY    43  39  86 NW12      30.14R
$$

ALZ019-021-028-029-037-038-045>048-051700-
EAST CENTRAL ALABAMA

CITY           SKY/WX    TMP DP  RH WIND       PRES   REMARKS
ANNISTON       LGT RAIN  39  35  86 N8        30.15S WCI  33
ALEXANDER CITY RAIN      42  38  84 NW12G17   30.14R
AUBURN         CLOUDY    46  43  87 NW21      30.13R
$$

ALZ051>064-051700-
SOUTHWEST ALABAMA

CITY           SKY/WX    TMP DP  RH WIND       PRES   REMARKS
MOBILE         PTSUNNY   44  39  82 N18       30.15F
BROOKLEY FIELD CLOUDY    47  42  83 N15       30.16R
EVERGREEN      CLOUDY    43  39  86 N15G21    30.17R
$$

ALZ049-050-065>069-051700-
SOUTHEAST ALABAMA

CITY           SKY/WX    TMP DP  RH WIND       PRES   REMARKS
DOTHAN         CLOUDY    76  67  73 SW13G20   30.05R
OZARK          DRIZZLE   73  66  78 W18       30.02R
TROY           CLOUDY    46  43  89 NW23G33   30.13R
EUFAULA        PTSUNNY   79  67  66 SW8G18    29.99R
$$


USA.gov is the U.S. government's official web portal to all federal, state and local government web resources and services.